| time (UTC) | temp F | wind direction | speed knots | gust knots | rain 1hr in | rain 24hr in | rain mn in | humidity % | barometer mb |
| 20260507010045 | 96 | 78 | 2.6 | 7.8 | 0.00 | 0.00 | 0.00 | 100 | 1012.5 |
| 20260507005544 | 96 | 61 | 3.5 | 10.4 | 0.00 | 0.00 | 0.00 | 100 | 1012.4 |
| 20260507005044 | 96 | 317 | 5.2 | 10.4 | 0.00 | 0.00 | 0.00 | 100 | 1012.2 |
| 20260507004544 | 96 | 322 | 6.1 | 9.6 | 0.00 | 0.00 | 0.00 | 100 | 1012.3 |
| 20260507004044 | 96 | 25 | 1.7 | 8.7 | 0.00 | 0.00 | 0.00 | 100 | 1011.9 |
| 20260507003529 | 96 | 26 | 2.6 | 9.6 | 0.00 | 0.00 | 0.00 | 100 | 1011.9 |
| 20260507003258 | 96 | 340 | 0.0 | 9.6 | 0.00 | 0.00 | 0.00 | 100 | 1012.0 |
| 20260507002524 | 96 | 26 | 3.5 | 10.4 | 0.00 | 0.00 | 0.00 | 100 | 1011.8 |
| 20260507002021 | 96 | 94 | 4.3 | 10.4 | 0.00 | 0.00 | 0.00 | 100 | 1011.7 |
| 20260507001522 | 96 | 293 | 1.7 | 7.8 | 0.00 | 0.00 | 0.00 | 100 | 1011.9 |
| 20260507001014 | 96 | 12 | 3.5 | 9.6 | 0.00 | 0.00 | 0.00 | 100 | 1011.9 |
| 20260507000514 | 96 | 15 | 4.3 | 9.6 | 0.00 | 0.00 | 0.00 | 100 | 1011.8 |
| 20260507000012 | 96 | 37 | 4.3 | 7.8 | 0.00 | 0.00 | 0.00 | 100 | 1012.0 |
| 20260506235511 | 96 | 40 | 3.5 | 7.8 | 0.00 | 0.00 | 0.00 | 100 | 1011.7 |
| 20260506235011 | 96 | 331 | 3.5 | 11.3 | 0.00 | 0.00 | 0.00 | 100 | 1011.7 |
| 20260506234009 | 96 | 8 | 5.2 | 11.3 | 0.00 | 0.00 | 0.00 | 100 | 1011.9 |
| 20260506233508 | 96 | 354 | 3.5 | 11.3 | 0.00 | 0.00 | 0.00 | 100 | 1011.7 |
| 20260506233007 | 96 | 296 | 1.7 | 8.7 | 0.00 | 0.00 | 0.00 | 100 | 1011.6 |
| 20260506232501 | 96 | 19 | 2.6 | 9.6 | 0.00 | 0.00 | 0.00 | 100 | 1011.6 |
| 20260506232001 | 96 | 5 | 2.6 | 10.4 | 0.00 | 0.00 | 0.00 | 100 | 1011.6 |
| 20260506231459 | 96 | 23 | 5.2 | 11.3 | 0.00 | 0.00 | 0.00 | 100 | 1011.6 |
| 20260506231231 | 96 | 261 | 5.2 | 11.3 | 0.00 | 0.00 | 0.00 | 100 | 1011.6 |
| 20260506230459 | 96 | 281 | 4.3 | 9.6 | 0.00 | 0.00 | 0.00 | 100 | 1011.6 |
| 20260506225959 | 96 | 331 | 4.3 | 10.4 | 0.00 | 0.00 | 0.00 | 100 | 1011.6 |
| 20260506225459 | 96 | 358 | 5.2 | 10.4 | 0.00 | 0.00 | 0.00 | 100 | 1011.6 |
| 20260506225230 | 96 | 14 | 5.2 | 8.7 | 0.00 | 0.00 | 0.00 | 100 | 1011.6 |
| 20260506224730 | 96 | 37 | 3.5 | 8.7 | 0.00 | 0.00 | 0.00 | 100 | 1011.5 |
| 20260506223959 | 96 | 1 | 5.2 | 12.2 | 0.00 | 0.00 | 0.00 | 100 | 1011.6 |
| 20260506223459 | 96 | 15 | 7.0 | 12.2 | 0.00 | 0.00 | 0.00 | 100 | 1011.6 |
| 20260506223230 | 96 | 357 | 2.6 | 12.2 | 0.00 | 0.00 | 0.00 | 100 | 1011.6 |
| 20260506222459 | 96 | 16 | 4.3 | 9.6 | 0.00 | 0.00 | 0.00 | 100 | 1011.5 |
| 20260506221959 | 96 | 29 | 4.3 | 11.3 | 0.00 | 0.00 | 0.00 | 100 | 1011.5 |
| 20260506221459 | 96 | 25 | 5.2 | 11.3 | 0.00 | 0.00 | 0.00 | 100 | 1011.5 |
| 20260506220959 | 96 | 340 | 4.3 | 11.3 | 0.00 | 0.00 | 0.00 | 100 | 1011.5 |
| 20260506220458 | 96 | 1 | 5.2 | 11.3 | 0.00 | 0.00 | 0.00 | 100 | 1011.6 |
| 20260506215958 | 96 | 310 | 1.7 | 9.6 | 0.00 | 0.00 | 0.00 | 100 | 1011.8 |
| 20260506215459 | 96 | 340 | 5.2 | 10.4 | 0.00 | 0.00 | 0.00 | 100 | 1011.5 |
| 20260506214959 | 96 | 25 | 6.1 | 12.2 | 0.00 | 0.00 | 0.00 | 100 | 1011.4 |
| 20260506214453 | 96 | 322 | 5.2 | 12.2 | 0.00 | 0.00 | 0.00 | 100 | 1011.3 |
| 20260506213953 | 97 | 11 | 4.3 | 13.9 | 0.00 | 0.00 | 0.00 | 100 | 1011.4 |
| 20260506213453 | 96 | 358 | 6.1 | 13.9 | 0.00 | 0.00 | 0.00 | 100 | 1011.3 |
| 20260506212952 | 96 | 30 | 4.3 | 11.3 | 0.00 | 0.00 | 0.00 | 100 | 1011.3 |
| 20260506212452 | 97 | 33 | 6.1 | 11.3 | 0.00 | 0.00 | 0.00 | 100 | 1011.3 |
| 20260506211952 | 96 | 2 | 7.0 | 11.3 | 0.00 | 0.00 | 0.00 | 100 | 1011.4 |
| 20260506211452 | 97 | 358 | 3.5 | 12.2 | 0.00 | 0.00 | 0.00 | 100 | 1011.4 |
| 20260506210953 | 97 | 40 | 5.2 | 12.2 | 0.00 | 0.00 | 0.00 | 100 | 1011.5 |
| 20260506210452 | 97 | 7 | 6.1 | 15.6 | 0.00 | 0.00 | 0.00 | 100 | 1011.5 |
| 20260506205953 | 98 | 319 | 7.8 | 15.6 | 0.00 | 0.00 | 0.00 | 100 | 1011.6 |
| 20260506205453 | 97 | 329 | 5.2 | 12.2 | 0.00 | 0.00 | 0.00 | 100 | 1011.8 |
| 20260506205225 | 97 | 5 | 6.1 | 12.2 | 0.00 | 0.00 | 0.00 | 100 | 1011.6 |
| 20260506204452 | 97 | 298 | 7.8 | 13.0 | 0.00 | 0.00 | 0.00 | 100 | 1011.7 |
| 20260506203953 | 98 | 310 | 5.2 | 13.0 | 0.00 | 0.00 | 0.00 | 100 | 1011.8 |
| 20260506203724 | 98 | 21 | 4.3 | 10.4 | 0.00 | 0.00 | 0.00 | 100 | 1011.8 |
| 20260506202953 | 98 | 358 | 4.3 | 9.6 | 0.00 | 0.00 | 0.00 | 100 | 1011.7 |
| 20260506202452 | 99 | 358 | 3.5 | 10.4 | 0.00 | 0.00 | 0.00 | 100 | 1011.6 |
| 20260506201952 | 99 | 40 | 5.2 | 12.2 | 0.00 | 0.00 | 0.00 | 100 | 1011.5 |
| 20260506201452 | 99 | 344 | 5.2 | 13.0 | 0.00 | 0.00 | 0.00 | 100 | 1011.6 |
| 20260506200953 | 99 | 358 | 7.0 | 13.0 | 0.00 | 0.00 | 0.00 | 100 | 1011.5 |
| 20260506200453 | 100 | 355 | 6.1 | 12.2 | 0.00 | 0.00 | 0.00 | 100 | 1011.5 |
| 20260506195953 | 100 | 67 | 5.2 | 15.6 | 0.00 | 0.00 | 0.00 | 100 | 1011.3 |
| 20260506195451 | 99 | 345 | 6.1 | 15.6 | 0.00 | 0.00 | 0.00 | 100 | 1011.4 |
| 20260506194950 | 99 | 29 | 3.5 | 13.9 | 0.00 | 0.00 | 0.00 | 100 | 1011.2 |
| 20260506194450 | 99 | 352 | 6.1 | 13.9 | 0.00 | 0.00 | 0.00 | 100 | 1011.2 |
| 20260506194221 | 99 | 42 | 6.1 | 13.0 | 0.00 | 0.00 | 0.00 | 100 | 1011.1 |
| 20260506193449 | 99 | 2 | 7.0 | 13.9 | 0.00 | 0.00 | 0.00 | 100 | 1011.0 |
| 20260506193221 | 99 | 37 | 8.7 | 13.9 | 0.00 | 0.00 | 0.00 | 100 | 1011.1 |
| 20260506192450 | 100 | 344 | 3.5 | 13.0 | 0.00 | 0.00 | 0.00 | 100 | 1011.1 |
| 20260506192221 | 99 | 358 | 5.2 | 13.0 | 0.00 | 0.00 | 0.00 | 100 | 1011.2 |
| 20260506191451 | 99 | 22 | 7.0 | 13.0 | 0.00 | 0.00 | 0.00 | 100 | 1011.2 |
| 20260506190950 | 100 | 358 | 7.8 | 13.0 | 0.00 | 0.00 | 0.00 | 100 | 1011.2 |
| 20260506190450 | 101 | 16 | 0.9 | 7.0 | 0.00 | 0.00 | 0.00 | 100 | 1011.2 |
| 20260506185948 | 101 | 11 | 3.5 | 7.0 | 0.00 | 0.00 | 0.00 | 100 | 1011.4 |
| 20260506185448 | 101 | 303 | 0.0 | 7.8 | 0.00 | 0.00 | 0.00 | 100 | 1011.3 |
| 20260506184947 | 101 | 16 | 4.3 | 8.7 | 0.00 | 0.00 | 0.00 | 100 | 1011.2 |
| 20260506184444 | 102 | 338 | 3.5 | 8.7 | 0.00 | 0.00 | 0.00 | 100 | 1011.2 |
| 20260506183943 | 102 | 262 | 3.5 | 7.0 | 0.00 | 0.00 | 0.00 | 100 | 1011.1 |
| 20260506183443 | 101 | 345 | 4.3 | 7.0 | 0.00 | 0.00 | 0.00 | 100 | 1011.1 |
| 20260506183214 | 102 | 2 | 0.0 | 7.0 | 0.00 | 0.00 | 0.00 | 100 | 1011.0 |
| 20260506182443 | 103 | 70 | 4.3 | 7.0 | 0.00 | 0.00 | 0.00 | 100 | 1011.0 |
| 20260506182214 | 102 | 358 | 5.2 | 7.0 | 0.00 | 0.00 | 0.00 | 100 | 1011.0 |
| 20260506181442 | 102 | 317 | 4.3 | 7.0 | 0.00 | 0.00 | 0.00 | 100 | 1011.1 |
| 20260506180949 | 102 | 7 | 2.6 | 5.2 | 0.00 | 0.00 | 0.00 | 100 | 1011.1 |
| 20260506180943 | 102 | 1 | 1.7 | 7.0 | 0.00 | 0.00 | 0.00 | 100 | 1011.1 |
| 20260506175943 | 102 | 326 | 0.9 | 7.0 | 0.00 | 0.00 | 0.00 | 100 | 1010.9 |
| 20260506175443 | 101 | 5 | 2.6 | 7.0 | 0.00 | 0.00 | 0.00 | 100 | 1010.8 |
| 20260506174943 | 101 | 32 | 1.7 | 5.2 | 0.00 | 0.00 | 0.00 | 100 | 1010.8 |
| 20260506174443 | 101 | 315 | 0.0 | 6.1 | 0.00 | 0.00 | 0.00 | 100 | 1010.8 |
| 20260506173944 | 101 | 67 | 0.0 | 7.0 | 0.00 | 0.00 | 0.00 | 100 | 1010.7 |
| 20260506173443 | 101 | 46 | 1.7 | 7.8 | 0.00 | 0.00 | 0.00 | 100 | 1010.7 |
| 20260506172943 | 100 | 149 | 2.6 | 7.8 | 0.00 | 0.00 | 0.00 | 100 | 1010.7 |
| 20260506172444 | 100 | 326 | 3.5 | 7.8 | 0.00 | 0.00 | 0.00 | 100 | 1010.8 |
| 20260506171945 | 100 | 36 | 1.7 | 7.8 | 0.00 | 0.00 | 0.00 | 100 | 1010.9 |
| 20260506171445 | 99 | 0 | 0.9 | 8.7 | 0.00 | 0.00 | 0.00 | 100 | 1010.9 |
| 20260506171216 | 99 | 358 | 0.9 | 8.7 | 0.00 | 0.00 | 0.00 | 100 | 1010.8 |
| 20260506170442 | 98 | 358 | 5.2 | 11.3 | 0.00 | 0.00 | 0.00 | 100 | 1010.9 |
| 20260506170212 | 98 | 40 | 3.5 | 11.3 | 0.00 | 0.00 | 0.00 | 100 | 1010.8 |
| 20260506165712 | 98 | 49 | 0.0 | 8.7 | 0.00 | 0.00 | 0.00 | 100 | 1010.9 |
| 20260506164939 | 98 | 35 | 2.6 | 9.6 | 0.00 | 0.00 | 0.00 | 100 | 1010.9 |
| 20260506164439 | 97 | 45 | 3.5 | 9.6 | 0.00 | 0.00 | 0.00 | 100 | 1011.1 |
| 20260506163939 | 96 | 82 | 0.9 | 11.3 | 0.00 | 0.00 | 0.00 | 100 | 1011.6 |
| 20260506163438 | 96 | 70 | 3.5 | 11.3 | 0.00 | 0.00 | 0.00 | 100 | 1011.6 |
| 20260506162931 | 97 | 52 | 3.5 | 8.7 | 0.00 | 0.00 | 0.00 | 100 | 1011.6 |
| 20260506162702 | 97 | 358 | 4.3 | 10.4 | 0.00 | 0.00 | 0.00 | 100 | 1011.5 |
| 20260506161925 | 95 | 326 | 6.1 | 12.2 | 0.00 | 0.00 | 0.00 | 100 | 1011.6 |
| 20260506161425 | 95 | 343 | 5.2 | 13.0 | 0.00 | 0.00 | 0.00 | 100 | 1011.8 |
| 20260506161151 | 95 | 357 | 3.5 | 13.0 | 0.00 | 0.00 | 0.00 | 100 | 1012.5 |
| 20260506160651 | 95 | 4 | 4.3 | 14.8 | 0.00 | 0.00 | 0.00 | 100 | 1012.4 |
| 20260506155921 | 95 | 317 | 7.8 | 14.8 | 0.00 | 0.00 | 0.00 | 100 | 1012.3 |
| 20260506155421 | 95 | 1 | 7.0 | 12.2 | 0.00 | 0.00 | 0.00 | 100 | 1012.1 |
| 20260506154921 | 95 | 340 | 0.9 | 13.0 | 0.00 | 0.00 | 0.00 | 100 | 1012.2 |
| 20260506154418 | 96 | 43 | 5.2 | 13.0 | 0.00 | 0.00 | 0.00 | 100 | 1012.1 |
| 20260506153917 | 96 | 49 | 4.3 | 14.8 | 0.00 | 0.00 | 0.00 | 100 | 1011.9 |
| 20260506153414 | 96 | 358 | 6.1 | 15.6 | 0.00 | 0.00 | 0.00 | 100 | 1011.9 |
| 20260506152913 | 96 | 1 | 7.8 | 15.6 | 0.00 | 0.00 | 0.00 | 100 | 1011.7 |
| 20260506152643 | 97 | 340 | 5.2 | 12.2 | 0.00 | 0.00 | 0.00 | 100 | 1011.7 |
| 20260506151912 | 97 | 18 | 5.2 | 12.2 | 0.00 | 0.00 | 0.00 | 100 | 1011.4 |
| 20260506151413 | 97 | 329 | 6.1 | 20.9 | 0.00 | 0.00 | 0.00 | 100 | 1011.1 |
| 20260506150913 | 98 | 348 | 7.8 | 20.9 | 0.00 | 0.00 | 0.00 | 100 | 1011.2 |
| 20260506150643 | 99 | 340 | 8.7 | 13.0 | 0.00 | 0.00 | 0.00 | 100 | 1011.1 |
| 20260506145914 | 101 | 154 | 0.0 | 0.0 | 0.00 | 0.00 | 0.00 | 100 | 1010.7 |
| 20260506145412 | 101 | 154 | 0.0 | 3.5 | 0.00 | 0.00 | 0.00 | 100 | 1010.4 |
| 20260506144911 | 101 | 154 | 0.0 | 5.2 | 0.00 | 0.00 | 0.00 | 100 | 1010.2 |
| 20260506144411 | 101 | 146 | 0.0 | 5.2 | 0.00 | 0.00 | 0.00 | 100 | 1009.7 |
| 20260506143901 | 101 | 75 | 0.9 | 6.1 | 0.00 | 0.00 | 0.00 | 100 | 1009.5 |
| 20260506143401 | 101 | 130 | 1.7 | 6.1 | 0.00 | 0.00 | 0.00 | 100 | 1009.5 |
| 20260506142905 | 101 | 109 | 0.0 | 6.1 | 0.00 | 0.00 | 0.00 | 100 | 1009.3 |
| 20260506142901 | 101 | 109 | 0.0 | 5.2 | 0.00 | 0.00 | 0.00 | 100 | 1009.4 |
| 20260506142355 | 102 | 151 | 0.0 | 6.1 | 0.00 | 0.00 | 0.00 | 100 | 1009.1 |
| 20260506141346 | 102 | 151 | 0.0 | 5.2 | 0.00 | 0.00 | 0.00 | 100 | 1009.0 |
| 20260506141108 | 101 | 168 | 1.7 | 5.2 | 0.00 | 0.00 | 0.00 | 100 | 1009.1 |
| 20260506140338 | 101 | 149 | 0.0 | 3.5 | 0.00 | 0.00 | 0.00 | 100 | 1009.3 |
| 20260506135829 | 100 | 149 | 0.0 | 3.5 | 0.00 | 0.00 | 0.00 | 100 | 1009.5 |
| 20260506135325 | 101 | 123 | 0.0 | 0.0 | 0.00 | 0.00 | 0.00 | 100 | 1009.6 |
| 20260506134819 | 100 | 123 | 0.0 | 0.0 | 0.00 | 0.00 | 0.00 | 100 | 1009.3 |
| 20260506134545 | 100 | 123 | 0.0 | 3.5 | 0.00 | 0.00 | 0.00 | 100 | 1009.0 |
| 20260506133814 | 100 | 123 | 0.0 | 3.5 | 0.00 | 0.00 | 0.00 | 100 | 1009.0 |
| 20260506133258 | 100 | 150 | 0.0 | 0.0 | 0.00 | 0.00 | 0.00 | 2 | 1009.1 |
| 20260506132747 | 100 | 150 | 0.0 | 4.3 | 0.00 | 0.00 | 0.00 | 2 | 1009.0 |
| 20260506132245 | 100 | 150 | 0.0 | 4.3 | 0.00 | 0.00 | 0.00 | 3 | 1008.9 |
| 20260506131744 | 100 | 105 | 0.0 | 4.3 | 0.00 | 0.00 | 0.00 | 4 | 1009.0 |
| 20260506131243 | 100 | 160 | 0.9 | 4.3 | 0.00 | 0.00 | 0.00 | 4 | 1008.8 |
| 20260506130740 | 100 | 115 | 0.9 | 4.3 | 0.00 | 0.00 | 0.00 | 4 | 1008.8 |
| 20260506130233 | 100 | 133 | 0.9 | 5.2 | 0.00 | 0.00 | 0.00 | 5 | 1008.8 |
| 20260506125727 | 100 | 98 | 1.7 | 3.5 | 0.00 | 0.00 | 0.00 | 6 | 1008.8 |
| 20260506125213 | 100 | 136 | 0.0 | 0.0 | 0.00 | 0.00 | 0.00 | 7 | 1008.7 |
| 20260506124939 | 100 | 136 | 0.0 | 2.6 | 0.00 | 0.00 | 0.00 | 10 | 1008.6 |
| 20260506124202 | 100 | 136 | 0.0 | 2.6 | 0.00 | 0.00 | 0.00 | 15 | 1008.5 |
| 20260506123658 | 100 | 185 | 0.0 | 0.0 | 0.00 | 0.00 | 0.00 | 22 | 1008.5 |
| 20260506123157 | 100 | 185 | 0.0 | 0.0 | 0.00 | 0.00 | 0.00 | 23 | 1008.5 |
| 20260506122657 | 100 | 185 | 0.0 | 0.0 | 0.00 | 0.00 | 0.00 | 22 | 1008.5 |
| 20260506122153 | 100 | 185 | 0.0 | 0.0 | 0.00 | 0.00 | 0.00 | 20 | 1008.5 |
| 20260506121924 | 100 | 185 | 0.0 | 0.0 | 0.00 | 0.00 | 0.00 | 19 | 1008.5 |
| 20260506121143 | 100 | 185 | 0.0 | 0.0 | 0.00 | 0.00 | 0.00 | 17 | 1008.5 |
| 20260506120643 | 100 | 185 | 0.0 | 0.0 | 0.00 | 0.00 | 0.00 | 16 | 1008.5 |
| 20260506120141 | 100 | 185 | 0.0 | 0.0 | 0.00 | 0.00 | 0.00 | 14 | 1008.6 |
| 20260506115847 | 100 | 185 | 0.0 | 0.0 | 0.00 | 0.00 | 0.00 | 12 | 1008.5 |
| 20260506115108 | 100 | 185 | 0.0 | 0.0 | 0.00 | 0.00 | 0.00 | 11 | 1008.4 |
| 20260506114837 | 100 | 185 | 0.0 | 0.0 | 0.00 | 0.00 | 0.00 | 8 | 1008.3 |
| 20260506114102 | 100 | 185 | 0.0 | 0.0 | 0.00 | 0.00 | 0.00 | 7 | 1008.4 |
| 20260506113556 | 100 | 185 | 0.0 | 0.0 | 0.00 | 0.00 | 0.00 | 6 | 1008.5 |
| 20260506113552 | 100 | 185 | 0.0 | 0.0 | 0.00 | 0.00 | 0.00 | 7 | 1008.5 |
| 20260506112813 | 100 | 185 | 0.0 | 0.0 | 0.00 | 0.00 | 0.00 | 6 | 1008.6 |
| 20260506112041 | 100 | 185 | 0.0 | 0.0 | 0.00 | 0.00 | 0.00 | 6 | 1008.6 |
| 20260506111531 | 100 | 185 | 0.0 | 0.0 | 0.00 | 0.00 | 0.00 | 6 | 1008.5 |
| 20260506111231 | 100 | 185 | 0.0 | 0.0 | 0.00 | 0.00 | 0.00 | 6 | 1008.5 |
| 20260506110723 | 100 | 185 | 0.0 | 0.0 | 0.00 | 0.00 | 0.00 | 5 | 1008.5 |
| 20260506105925 | 100 | 185 | 0.0 | 0.0 | 0.00 | 0.00 | 0.00 | 5 | 1008.5 |
| 20260506105646 | 100 | 185 | 0.0 | 0.0 | 0.00 | 0.00 | 0.00 | 5 | 1008.5 |
| 20260506104910 | 100 | 185 | 0.0 | 0.0 | 0.00 | 0.00 | 0.00 | 5 | 1008.4 |
| 20260506104355 | 100 | 185 | 0.0 | 0.0 | 0.00 | 0.00 | 0.00 | 4 | 1008.4 |
| 20260506103848 | 100 | 185 | 0.0 | 0.0 | 0.00 | 0.00 | 0.00 | 4 | 1008.3 |
| 20260506103552 | 100 | 185 | 0.0 | 0.0 | 0.00 | 0.00 | 0.00 | 4 | 1008.2 |
| 20260506102819 | 100 | 185 | 0.0 | 0.0 | 0.00 | 0.00 | 0.00 | 4 | 1008.2 |
| 20260506102319 | 100 | 185 | 0.0 | 0.0 | 0.00 | 0.00 | 0.00 | 4 | 1008.2 |
| 20260506102030 | 100 | 185 | 0.0 | 3.5 | 0.00 | 0.00 | 0.00 | 4 | 1008.2 |
| 20260506101234 | 100 | 185 | 0.0 | 3.5 | 0.00 | 0.00 | 0.00 | 5 | 1008.2 |
| 20260506101000 | 100 | 139 | 0.0 | 1.7 | 0.00 | 0.00 | 0.00 | 5 | 1008.1 |
| 20260506100208 | 100 | 232 | 0.0 | 1.7 | 0.00 | 0.00 | 0.00 | 7 | 1008.0 |
| 20260506095659 | 100 | 232 | 0.0 | 5.2 | 0.00 | 0.00 | 0.00 | 7 | 1008.0 |
| 20260506095156 | 100 | 232 | 0.0 | 5.2 | 0.00 | 0.00 | 0.00 | 9 | 1007.9 |
| 20260506094648 | 100 | 168 | 0.9 | 6.1 | 0.00 | 0.00 | 0.00 | 10 | 1007.8 |
| 20260506094148 | 100 | 139 | 2.6 | 6.1 | 0.00 | 0.00 | 0.00 | 9 | 1007.8 |
| 20260506093646 | 100 | 195 | 0.9 | 4.3 | 0.00 | 0.00 | 0.00 | 7 | 1007.7 |
| 20260506093416 | 100 | 187 | 0.9 | 4.3 | 0.00 | 0.00 | 0.00 | 5 | 1007.7 |
| 20260506092644 | 100 | 168 | 0.0 | 4.3 | 0.00 | 0.00 | 0.00 | 3 | 1007.7 |
| 20260506092144 | 100 | 180 | 0.0 | 0.9 | 0.00 | 0.00 | 0.00 | 2 | 1007.6 |
| 20260506091643 | 100 | 180 | 0.0 | 7.0 | 0.00 | 0.00 | 0.00 | 2 | 1007.5 |
| 20260506091143 | 100 | 180 | 0.9 | 7.0 | 0.00 | 0.00 | 0.00 | 1 | 1007.4 |
| 20260506090915 | 100 | 160 | 0.0 | 7.0 | 0.00 | 0.00 | 0.00 | 1 | 1007.3 |
| 20260506090127 | 100 | 133 | 3.5 | 7.0 | 0.00 | 0.00 | 0.00 | 100 | 1007.2 |
| 20260506085605 | 100 | 109 | 0.0 | 0.0 | 0.00 | 0.00 | 0.00 | 100 | 1007.2 |
| 20260506085039 | 100 | 109 | 0.0 | 4.3 | 0.00 | 0.00 | 0.00 | 100 | 1007.2 |
| 20260506084528 | 100 | 109 | 0.0 | 4.3 | 0.00 | 0.00 | 0.00 | 100 | 1007.3 |
| 20260506084022 | 100 | 118 | 1.7 | 7.8 | 0.00 | 0.00 | 0.00 | 100 | 1007.2 |
| 20260506083514 | 100 | 164 | 2.6 | 7.8 | 0.00 | 0.00 | 0.00 | 100 | 1007.2 |
| 20260506083010 | 100 | 156 | 1.7 | 8.7 | 0.00 | 0.00 | 0.00 | 100 | 1007.2 |
| 20260506082509 | 100 | 194 | 3.5 | 10.4 | 0.00 | 0.00 | 0.00 | 100 | 1007.2 |
| 20260506082009 | 100 | 175 | 3.5 | 10.4 | 0.00 | 0.00 | 0.00 | 100 | 1007.2 |
| 20260506081506 | 100 | 172 | 2.6 | 5.2 | 0.00 | 0.00 | 0.00 | 100 | 1007.2 |
| 20260506080959 | 100 | 42 | 0.0 | 6.1 | 0.00 | 0.00 | 0.00 | 100 | 1007.2 |
| 20260506080450 | 100 | 154 | 1.7 | 6.1 | 0.00 | 0.00 | 0.00 | 100 | 1007.2 |
| 20260506073445 | 100 | 54 | 3.5 | 7.8 | 0.00 | 0.00 | 0.00 | 100 | 1007.5 |
| 20260506072944 | 100 | 146 | 0.0 | 7.8 | 0.00 | 0.00 | 0.00 | 100 | 1007.6 |
| 20260506072715 | 100 | 146 | 3.5 | 9.6 | 0.00 | 0.00 | 0.00 | 100 | 1007.6 |
| 20260506071944 | 100 | 80 | 0.0 | 9.6 | 0.00 | 0.00 | 0.00 | 100 | 1007.7 |
| 20260506071444 | 100 | 150 | 2.6 | 10.4 | 0.00 | 0.00 | 0.00 | 100 | 1007.7 |
| 20260506070944 | 100 | 156 | 3.5 | 10.4 | 0.00 | 0.00 | 0.00 | 100 | 1007.7 |
| 20260506070443 | 100 | 139 | 1.7 | 9.6 | 0.00 | 0.00 | 0.00 | 100 | 1007.7 |
| 20260506062213 | 100 | 149 | 4.3 | 7.8 | 0.00 | 0.00 | 0.00 | 100 | 1007.8 |
| 20260506061442 | 100 | 127 | 3.5 | 7.0 | 0.00 | 0.00 | 0.00 | 100 | 1007.9 |
| 20260506060942 | 100 | 123 | 0.0 | 10.4 | 0.00 | 0.00 | 0.00 | 100 | 1007.6 |
| 20260506060443 | 100 | 149 | 3.5 | 10.4 | 0.00 | 0.00 | 0.00 | 100 | 1007.5 |
| 20260506050914 | 100 | 170 | 3.5 | 6.1 | 0.00 | 0.00 | 0.00 | 100 | 1007.7 |
| 20260506050414 | 100 | 109 | 0.9 | 5.2 | 0.00 | 0.00 | 0.00 | 100 | 1007.7 |
| 20260506044859 | 100 | 137 | 1.7 | 5.2 | 0.00 | 0.00 | 0.00 | 100 | 1007.7 |
| 20260506044357 | 100 | 135 | 0.0 | 5.2 | 0.00 | 0.00 | 0.00 | 100 | 1007.6 |
| 20260506044128 | 100 | 189 | 0.0 | 6.1 | 0.00 | 0.00 | 0.00 | 100 | 1007.6 |
| 20260506043354 | 100 | 118 | 3.5 | 7.0 | 0.00 | 0.00 | 0.00 | 100 | 1007.7 |
| 20260506042850 | 100 | 170 | 3.5 | 7.0 | 0.00 | 0.00 | 0.00 | 100 | 1007.7 |
| 20260506042345 | 100 | 146 | 0.0 | 7.8 | 0.00 | 0.00 | 0.00 | 100 | 1007.7 |
| 20260506041840 | 100 | 136 | 2.6 | 7.8 | 0.00 | 0.00 | 0.00 | 100 | 1007.6 |
| 20260506041336 | 100 | 133 | 0.0 | 5.2 | 0.00 | 0.00 | 0.00 | 100 | 1007.6 |
| 20260506041323 | 100 | 130 | 1.7 | 5.2 | 0.00 | 0.00 | 0.00 | 100 | 1007.6 |
| 20260506040321 | 100 | 168 | 0.0 | 7.0 | 0.00 | 0.00 | 0.00 | 100 | 1007.5 |
| 20260506035821 | 100 | 154 | 2.6 | 7.0 | 0.00 | 0.00 | 0.00 | 100 | 1007.5 |
| 20260506035321 | 100 | 194 | 3.5 | 6.1 | 0.00 | 0.00 | 0.00 | 100 | 1007.5 |
| 20260506034822 | 100 | 143 | 1.7 | 8.7 | 0.00 | 0.00 | 0.00 | 100 | 1007.4 |
| 20260506034304 | 100 | 147 | 4.3 | 8.7 | 0.00 | 0.00 | 0.00 | 100 | 1007.3 |
| 20260506034035 | 100 | 109 | 3.5 | 5.2 | 0.00 | 0.00 | 0.00 | 100 | 1007.2 |
| 20260506033304 | 100 | 127 | 1.7 | 7.0 | 0.00 | 0.00 | 0.00 | 100 | 1007.4 |
| 20260506032805 | 101 | 143 | 2.6 | 7.8 | 0.00 | 0.00 | 0.00 | 100 | 1007.4 |
| 20260506032255 | 100 | 150 | 0.0 | 7.8 | 0.00 | 0.00 | 0.00 | 100 | 1007.3 |
| 20260506031750 | 101 | 191 | 1.7 | 7.8 | 0.00 | 0.00 | 0.00 | 100 | 1007.3 |
| 20260506031250 | 101 | 158 | 4.3 | 7.8 | 0.00 | 0.00 | 0.00 | 100 | 1007.2 |
| 20260506030750 | 101 | 129 | 0.9 | 6.1 | 0.00 | 0.00 | 0.00 | 100 | 1007.2 |
| 20260506030517 | 101 | 149 | 0.0 | 6.1 | 0.00 | 0.00 | 0.00 | 100 | 1007.1 |
| 20260506025744 | 101 | 127 | 0.9 | 5.2 | 0.00 | 0.00 | 0.00 | 100 | 1007.1 |
| 20260506025244 | 101 | 163 | 0.0 | 5.2 | 0.00 | 0.00 | 0.00 | 100 | 1006.9 |
| 20260506024743 | 101 | 106 | 0.0 | 2.6 | 0.00 | 0.00 | 0.00 | 100 | 1006.8 |
| 20260506024243 | 101 | 106 | 0.0 | 0.0 | 0.00 | 0.00 | 0.00 | 100 | 1006.7 |
| 20260506023739 | 101 | 106 | 0.0 | 0.0 | 0.00 | 0.00 | 0.00 | 100 | 1006.7 |
| 20260506023229 | 101 | 106 | 0.0 | 0.9 | 0.00 | 0.00 | 0.00 | 100 | 1006.5 |
| 20260506022718 | 101 | 106 | 0.0 | 2.6 | 0.00 | 0.00 | 0.00 | 100 | 1006.3 |
| 20260506022217 | 101 | 106 | 0.0 | 2.6 | 0.00 | 0.00 | 0.00 | 100 | 1006.2 |
| 20260506021718 | 101 | 140 | 0.0 | 0.0 | 0.00 | 0.00 | 0.00 | 100 | 1006.2 |
| 20260506021214 | 101 | 140 | 0.0 | 0.0 | 0.00 | 0.00 | 0.00 | 100 | 1006.1 |
| 20260506020712 | 101 | 140 | 0.0 | 0.9 | 0.00 | 0.00 | 0.00 | 100 | 1006.1 |
| 20260506020213 | 101 | 140 | 0.0 | 3.5 | 0.00 | 0.00 | 0.00 | 100 | 1005.8 |
| 20260506015713 | 101 | 140 | 0.9 | 3.5 | 0.00 | 0.00 | 0.00 | 100 | 1005.7 |
| 20260506015208 | 101 | 156 | 0.0 | 2.6 | 0.00 | 0.00 | 0.00 | 100 | 1005.6 |
| 20260506014703 | 101 | 167 | 0.0 | 4.3 | 0.00 | 0.00 | 0.00 | 100 | 1005.7 |
| 20260506014201 | 101 | 167 | 0.9 | 4.3 | 0.00 | 0.00 | 0.00 | 100 | 1005.6 |
| 20260506013918 | 101 | 147 | 0.0 | 0.0 | 0.00 | 0.00 | 0.00 | 100 | 1005.6 |
| 20260506013123 | 101 | 147 | 0.0 | 0.0 | 0.00 | 0.00 | 0.00 | 100 | 1005.6 |
| 20260506012616 | 101 | 147 | 0.0 | 4.3 | 0.00 | 0.00 | 0.00 | 100 | 1005.6 |
| 20260506012111 | 101 | 147 | 0.0 | 4.3 | 0.00 | 0.00 | 0.00 | 100 | 1005.5 |
| 20260506011556 | 101 | 125 | 0.0 | 4.3 | 0.00 | 0.00 | 0.00 | 100 | 1005.5 |
| 20260506011056 | 101 | 151 | 2.6 | 4.3 | 0.00 | 0.00 | 0.00 | 100 | 1005.6 |
| 20260506010554 | 101 | 153 | 0.0 | 0.0 | 0.00 | 0.00 | 0.00 | 100 | 1005.6 |